Location: Central Falls
(41.8900°N, 71.3929°W)
Time: 13:03:46
(UTC+00:00)

A-11 Canister half - Pass Details

Date: 11 December 2023
Orbit: 1526 x 1682 km, 47.3° (Epoch: 20 February)

Event Time Altitude Azimuth Distance (km) Brightness Sun altitude
Rises 06:33:33 0° 291° (WNW) 4,892 - -59.5°
Reaches altitude 10° 06:38:01 10° 275° (W) 3,876 - -58.8°
Maximum altitude 06:44:03 18° 236° (SW) 3,215 - -57.8°
Drops below altitude 10° 06:50:00 10° 197° (SSW) 3,787 - -56.8°
Sets 06:54:19 0° 180° (S) 4,739 - -56.0°
